Location: Buffign�court
(47.8126°N, 6.0176°E)
Time: 20:33:19
(UTC+00:00)

Cosmos 1607 - Pass Details

Date: 16 June 2021
Orbit: 911 x 992 km, 65.0° (Epoch: 23 July)

Event Time Altitude Azimuth Distance (km) Brightness Sun altitude
Rises 22:34:18 0° 322° (NW) 3,706 8.3 -17.4°
Reaches altitude 10° 22:36:56 10° 325° (NW) 2,748 7.4 -17.5°
Maximum altitude 22:43:22 69° 49° (NE) 1,041 4.2 -17.8°
Enters shadow 22:47:53 20° 129° (SE) 2,062 5.3 -18.0°
